FW2847 Weather Reports


time (UTC)temp
C
wind
direction
speed
KPH
gust
KPH
rain 1hr
cm
rain 24hr
cm
rain mn
cm
humidity
%
barometer
mb
20260508031111 11 291 4.8 11.3 0.00 0.03 0.03 56 1020.6
20260508030610 12 290 8.0 14.5 0.00 0.03 0.03 55 1020.6
20260508030110 12 293 8.0 14.5 0.00 0.03 0.03 54 1020.6
20260508025613 12 280 8.0 17.7 0.00 0.03 0.03 53 1020.6
20260508025108 13 290 9.7 17.7 0.00 0.03 0.03 53 1020.6
20260508024608 13 284 11.3 20.9 0.00 0.03 0.03 52 1020.6
20260508024110 13 269 9.7 20.9 0.00 0.03 0.03 51 1020.6
20260508023840 13 269 8.0 16.1 0.00 0.03 0.03 51 1020.6
20260508023110 13 288 3.2 16.1 0.00 0.03 0.03 51 1020.6
20260508022842 13 299 3.2 12.9 0.00 0.03 0.03 49 1020.6
20260508022110 13 290 4.8 12.9 0.00 0.03 0.03 48 1020.6
20260508021609 14 274 6.4 20.9 0.00 0.03 0.03 46 1020.6
20260508021109 14 285 8.0 20.9 0.00 0.03 0.03 45 1020.6
20260508020610 13 311 3.2 17.7 0.00 0.03 0.03 47 1020.6
20260508020340 13 113 0.0 1.6 0.00 0.03 0.03 46 1020.6
20260508015611 13 28 0.0 1.6 0.00 0.03 0.03 47 1020.6
20260508015109 14 27 1.6 6.4 0.00 0.03 0.03 46 1020.6
20260508014841 14 49 1.6 6.4 0.00 0.03 0.03 44 1020.6
20260508014340 15 297 1.6 6.4 0.00 0.03 0.03 43 1020.6
20260508014230 15 294 3.2 6.4 0.00 0.03 0.03 42 1020.6
20260508013111 15 296 1.6 6.4 0.00 0.03 0.03 41 1020.6
20260508012608 15 284 1.6 3.2 0.00 0.03 0.03 41 1020.6
20260508012338 15 335 1.6 3.2 0.00 0.03 0.03 40 1020.6
20260508011840 15 293 1.6 3.2 0.00 0.03 0.03 41 1020.6
20260508011105 15 292 0.0 3.2 0.00 0.03 0.03 41 1020.6
20260508010605 15 55 0.0 0.0 0.00 0.03 0.03 38 1020.6
20260508010106 15 55 0.0 0.0 0.00 0.03 0.03 37 1020.6
20260508005836 15 55 0.0 0.0 0.00 0.03 0.03 37 1020.6
20260508005104 15 52 0.0 0.0 0.00 0.03 0.03 37 1020.6
20260508004604 15 52 0.0 0.0 0.00 0.03 0.03 37 1020.6
20260508004106 15 52 0.0 0.0 0.00 0.03 0.03 39 1020.6
20260508003604 16 51 0.0 0.0 0.00 0.03 0.03 38 1020.6
20260508003106 16 104 0.0 0.0 0.00 0.03 0.03 36 1020.6
20260508002605 16 104 0.0 0.0 0.00 0.03 0.03 35 1020.6
20260508002107 16 103 0.0 1.6 0.00 0.03 0.03 37 1020.6
20260508001604 16 102 0.0 1.6 0.00 0.03 0.03 39 1020.6
20260508001105 16 108 0.0 1.6 0.00 0.03 0.03 39 1020.6
20260508000605 16 357 0.0 0.0 0.00 0.03 0.03 36 1020.6
20260508000107 16 11 0.0 0.0 0.00 0.03 0.03 33 1020.6
20260507235604 16 10 0.0 0.0 0.00 0.03 0.03 33 1020.6
20260507235106 16 10 0.0 0.0 0.00 0.03 0.03 34 1020.6
20260507234604 16 10 0.0 0.0 0.00 0.03 0.03 33 1020.6
20260507234104 16 10 0.0 0.0 0.00 0.03 0.03 33 1020.6
20260507233611 16 10 0.0 0.0 0.00 0.03 0.03 34 1020.6
20260507233607 16 10 0.0 0.0 0.00 0.03 0.03 33 1020.6
20260507232606 16 10 0.0 1.6 0.00 0.03 0.03 33 1020.6
20260507232107 16 10 0.0 1.6 0.00 0.03 0.03 35 1020.6
20260507231604 16 299 0.0 0.0 0.00 0.03 0.03 34 1020.6
20260507231335 16 298 0.0 0.0 0.00 0.03 0.03 35 1020.6
20260507230606 16 298 0.0 3.2 0.00 0.03 0.03 34 1020.6
20260507230106 16 34 0.0 6.4 0.00 0.03 0.03 33 1020.6
20260507225605 16 1 0.0 6.4 0.00 0.03 0.03 32 1020.6
20260507225105 17 303 0.0 3.2 0.00 0.03 0.03 33 1020.6
20260507224606 17 326 0.0 3.2 0.00 0.03 0.03 34 1020.6
20260507224104 17 39 0.0 3.2 0.00 0.03 0.03 33 1020.6
20260507223604 17 159 0.0 0.0 0.00 0.03 0.03 31 1020.6
20260507223107 17 131 0.0 3.2 0.00 0.03 0.03 33 1020.6
20260507222604 17 252 0.0 3.2 0.00 0.03 0.03 31 1020.6
20260507222335 17 321 0.0 3.2 0.00 0.03 0.03 34 1020.6
20260507221604 16 334 0.0 0.0 0.00 0.03 0.03 35 1020.6
20260507221102 16 76 0.0 0.0 0.00 0.03 0.03 34 1020.6
20260507220602 16 68 0.0 0.0 0.00 0.03 0.03 35 1020.6
20260507220104 16 309 1.6 8.0 0.00 0.03 0.03 36 1020.6
20260507215835 16 311 3.2 8.0 0.00 0.03 0.03 32 1020.6
20260507215103 16 304 3.2 9.7 0.00 0.03 0.03 34 1020.6
20260507214600 16 302 3.2 9.7 0.00 0.03 0.03 34 1020.6
20260507214103 16 290 3.2 8.0 0.00 0.03 0.03 35 1020.6
20260507213832 16 284 4.8 11.3 0.00 0.03 0.03 31 1020.6
20260507213100 17 310 8.0 14.5 0.00 0.03 0.03 34 1020.6
20260507212602 17 298 8.0 14.5 0.00 0.03 0.03 31 1020.6
20260507212101 17 293 8.0 24.1 0.00 0.03 0.03 31 1020.6
20260507211833 18 290 8.0 24.1 0.00 0.03 0.03 32 1020.6
20260507211107 17 300 6.4 17.7 0.00 0.03 0.03 34 1020.6
20260507211100 17 300 8.0 17.7 0.00 0.03 0.03 34 1020.6
20260507210100 17 305 6.4 11.3 0.00 0.03 0.03 34 1020.6
20260507205558 17 305 6.4 11.3 0.00 0.03 0.03 32 1020.6
20260507205331 18 297 6.4 16.1 0.00 0.03 0.03 32 1020.6
20260507204600 18 296 8.0 16.1 0.00 0.05 0.03 33 1020.6
20260507204058 18 296 8.0 14.5 0.00 0.05 0.03 34 1020.6
20260507203830 18 316 8.0 14.5 0.00 0.05 0.03 34 1020.6
20260507203059 18 311 6.4 16.1 0.00 0.08 0.03 34 1020.6
20260507202558 18 308 6.4 16.1 0.00 0.10 0.03 32 1020.6
20260507202059 18 331 4.8 14.5 0.00 0.13 0.03 30 1020.6
20260507201558 18 281 3.2 16.1 0.00 0.15 0.03 35 1020.6
20260507201056 18 31 4.8 16.1 0.00 0.18 0.03 34 1020.6
20260507200557 18 301 4.8 14.5 0.00 0.18 0.03 32 1020.6
20260507200057 18 329 4.8 14.5 0.00 0.20 0.03 37 1020.6
20260507195557 18 338 6.4 14.5 0.00 0.23 0.03 36 1020.6
20260507195055 18 335 11.3 20.9 0.00 0.25 0.03 36 1020.6
20260507194554 17 311 11.3 20.9 0.00 0.28 0.03 37 1020.6
20260507194055 17 300 9.7 17.7 0.00 0.30 0.03 35 1020.6
20260507193555 17 283 11.3 25.7 0.00 0.33 0.03 34 1020.6
20260507193054 17 269 12.9 25.7 0.00 0.36 0.03 38 1020.6
20260507192554 16 279 14.5 32.2 0.00 0.38 0.03 34 1020.6
20260507192056 17 289 14.5 32.2 0.00 0.43 0.03 35 1020.6
20260507191556 17 283 14.5 27.4 0.00 0.46 0.03 35 1020.6
20260507191055 16 288 16.1 29.0 0.00 0.46 0.03 36 1020.6
20260507190552 16 304 11.3 29.0 0.00 0.46 0.03 35 1020.6
20260507190053 16 313 4.8 19.3 0.00 0.46 0.03 35 1020.6
20260507185553 16 287 3.2 12.9 0.00 0.46 0.03 42 1020.6
20260507185326 16 221 3.2 14.5 0.00 0.46 0.03 36 1020.6
20260507184552 15 290 4.8 16.1 0.00 0.46 0.03 35 1020.6
20260507184052 15 307 6.4 17.7 0.00 0.46 0.03 36 1020.6
20260507183553 15 295 6.4 17.7 0.00 0.46 0.03 39 1020.6
20260507183053 15 304 6.4 14.5 0.00 0.46 0.03 39 1020.6
20260507182550 15 296 4.8 14.5 0.00 0.46 0.03 36 1020.6
20260507182051 14 292 3.2 12.9 0.00 0.46 0.03 37 1020.6
20260507181552 14 295 3.2 9.7 0.00 0.46 0.03 37 1020.6
20260507181051 14 285 3.2 9.7 0.00 0.46 0.03 38 1020.6
20260507180551 14 288 3.2 9.7 0.00 0.46 0.03 38 1020.6
20260507180051 14 288 1.6 8.0 0.00 0.46 0.03 40 1020.6
20260507175551 14 302 0.0 4.8 0.00 0.46 0.03 40 1020.6
20260507175323 13 273 0.0 0.0 0.00 0.46 0.03 45 1020.6
20260507174551 13 293 0.0 1.6 0.00 0.46 0.03 45 1020.6
20260507174050 13 293 0.0 1.6 0.00 0.46 0.03 46 1020.6
20260507173550 13 290 0.0 0.0 0.00 0.46 0.03 46 1020.6
20260507173319 13 290 0.0 1.6 0.00 0.46 0.03 44 1020.6
20260507172548 13 309 0.0 4.8 0.00 0.46 0.03 44 1020.6
20260507172051 13 301 0.0 4.8 0.00 0.46 0.03 44 1020.6
20260507171818 13 88 0.0 0.0 0.00 0.46 0.03 42 1020.6
20260507171048 13 80 0.0 3.2 0.00 0.46 0.03 43 1020.6
20260507170551 13 80 0.0 3.2 0.00 0.46 0.03 45 1020.6
20260507170048 13 113 0.0 4.8 0.00 0.46 0.03 45 1020.6
20260507165819 13 116 0.0 4.8 0.00 0.46 0.03 45 1020.6
20260507165323 13 95 0.0 3.2 0.00 0.46 0.03 43 1020.6
20260507164547 13 88 0.0 4.8 0.00 0.46 0.03 42 1020.6
20260507164045 13 236 1.6 8.0 0.00 0.46 0.03 42 1020.6
20260507163547 13 278 1.6 8.0 0.00 0.46 0.03 44 1020.6
20260507163047 13 311 1.6 8.0 0.00 0.46 0.03 41 1020.6
20260507162545 13 359 1.6 8.0 0.00 0.46 0.03 42 1020.6
20260507162044 13 79 1.6 9.7 0.00 0.46 0.03 46 1020.6
20260507161545 14 135 3.2 16.1 0.00 0.46 0.03 43 1020.6
20260507161045 14 123 1.6 16.1 0.00 0.46 0.03 39 1020.6
20260507160544 14 88 0.0 6.4 0.00 0.46 0.03 42 1020.6
20260507160043 14 90 1.6 6.4 0.00 0.46 0.03 42 1020.6
20260507155545 15 77 1.6 8.0 0.00 0.46 0.03 38 1020.6
20260507155043 15 167 1.6 8.0 0.00 0.46 0.03 39 1020.6
20260507154542 15 119 1.6 9.7 0.00 0.46 0.03 41 1020.6
20260507154042 14 113 3.2 9.7 0.00 0.46 0.03 41 1020.6
20260507153541 14 342 1.6 6.4 0.00 0.46 0.03 47 1020.6
20260507153315 14 4 1.6 9.7 0.00 0.46 0.03 48 1020.6
20260507152540 13 45 3.2 12.9 0.00 0.46 0.03 47 1020.6
20260507152041 13 58 3.2 12.9 0.00 0.46 0.03 48 1020.6
20260507151542 13 60 3.2 11.3 0.00 0.46 0.03 48 1020.6
20260507151041 15 79 1.6 8.0 0.00 0.46 0.03 46 1020.6
20260507150541 14 304 1.6 9.7 0.00 0.46 0.03 42 1020.6
20260507150310 13 295 6.4 16.1 0.00 0.46 0.03 43 1020.6
20260507145540 13 297 8.0 16.1 0.00 0.46 0.03 42 1020.6
20260507145039 13 259 8.0 20.9 0.00 0.46 0.03 42 1020.6
20260507144538 12 288 11.3 22.5 0.00 0.46 0.03 43 1020.6
20260507144037 12 272 11.3 22.5 0.00 0.46 0.03 43 1020.6
20260507143537 12 272 11.3 25.7 0.00 0.46 0.03 43 1020.6
20260507143035 12 275 12.9 25.7 0.00 0.46 0.03 44 1020.6
20260507142809 12 275 12.9 25.7 0.00 0.46 0.03 44 1020.6
20260507142037 12 301 12.9 25.7 0.00 0.46 0.03 44 1020.6
20260507141535 12 278 14.5 25.7 0.00 0.46 0.03 43 1020.6
20260507141035 11 259 14.5 29.0 0.00 0.46 0.03 42 1020.6
20260507140537 11 278 14.5 29.0 0.00 0.46 0.03 44 1020.6
20260507140037 11 269 14.5 27.4 0.00 0.46 0.03 43 1020.6
20260507135536 11 297 16.1 27.4 0.00 0.46 0.03 44 1020.6
20260507135035 11 293 14.5 27.4 0.00 0.46 0.03 45 1020.6
20260507134536 10 260 14.5 25.7 0.00 0.46 0.03 44 1020.6
20260507134038 10 297 16.1 32.2 0.00 0.46 0.03 44 1020.6
20260507133536 10 273 19.3 32.2 0.00 0.46 0.03 45 1020.6
20260507133036 10 286 20.9 35.4 0.00 0.46 0.03 45 1020.6
20260507132536 10 290 20.9 35.4 0.00 0.46 0.03 45 1020.6
20260507132037 10 288 20.9 35.4 0.00 0.46 0.03 44 1020.6
20260507131536 9 291 20.9 33.8 0.00 0.46 0.03 47 1020.6
20260507131037 9 294 19.3 33.8 0.00 0.46 0.03 47 1020.6
20260507130537 8 273 20.9 33.8 0.00 0.46 0.03 47 1020.6
20260507130037 8 279 20.9 33.8 0.00 0.46 0.03 47 1020.6
20260507125807 8 268 20.9 33.8 0.00 0.46 0.03 47 1020.6
20260507125036 8 296 19.3 32.2 0.00 0.46 0.03 47 1020.6
20260507124538 8 279 20.9 33.8 0.00 0.46 0.03 48 1020.6
20260507124036 8 281 22.5 35.4 0.00 0.46 0.03 46 1020.6
20260507123535 8 293 24.1 35.4 0.00 0.46 0.03 46 1020.6
20260507123307 8 254 22.5 41.8 0.00 0.46 0.03 47 1020.6
20260507122543 8 276 22.5 41.8 0.00 0.46 0.03 47 1020.6
20260507122537 8 292 22.5 41.8 0.00 0.46 0.03 47 1020.6
20260507121537 8 273 20.9 40.2 0.00 0.46 0.03 47 1020.6
20260507121307 7 252 17.7 33.8 0.00 0.46 0.03 47 1020.6
20260507120806 7 276 16.1 35.4 0.00 0.46 0.03 48 1020.6
20260507120306 7 282 14.5 35.4 0.00 0.46 0.03 49 1020.6
20260507115536 7 277 14.5 25.7 0.00 0.46 0.03 49 1020.6
20260507115037 7 288 16.1 29.0 0.00 0.46 0.03 48 1020.6
20260507114535 8 330 17.7 32.2 0.00 0.46 0.03 46 1020.6
20260507114036 7 322 19.3 32.2 0.00 0.46 0.03 47 1020.6
20260507113536 7 299 17.7 37.0 0.00 0.46 0.03 46 1020.6
20260507113035 7 254 16.1 37.0 0.00 0.46 0.03 46 1020.6
20260507112809 7 314 16.1 32.2 0.00 0.46 0.03 47 1020.6
20260507112658 8 302 17.7 32.2 0.00 0.46 0.03 45 1020.6
20260507111808 8 286 17.7 30.6 0.00 0.46 0.03 46 1020.6
20260507111036 8 282 16.1 30.6 0.00 0.46 0.03 45 1020.6
20260507110537 8 302 16.1 30.6 0.00 0.46 0.03 44 1020.6
20260507110037 8 302 14.5 27.4 0.00 0.46 0.03 41 1020.6
20260507105535 8 280 14.5 32.2 0.00 0.46 0.03 42 1020.6
20260507105036 8 265 16.1 32.2 0.00 0.46 0.03 42 1020.6
20260507104535 8 263 16.1 32.2 0.00 0.46 0.03 43 1020.6
20260507104038 8 285 16.1 29.0 0.00 0.46 0.03 43 1020.6
20260507103535 8 313 14.5 25.7 0.00 0.46 0.03 44 1020.6
20260507103035 8 254 12.9 24.1 0.00 0.46 0.03 45 1020.6
20260507102808 7 265 12.9 25.7 0.00 0.46 0.03 45 1020.6
20260507102035 7 299 16.1 29.0 0.00 0.46 0.03 46 1020.6
20260507101536 7 319 16.1 29.0 0.00 0.46 0.03 46 1020.6
20260507101035 7 302 16.1 27.4 0.00 0.46 0.03 47 1020.6
20260507100537 8 317 16.1 29.0 0.00 0.46 0.03 45 1020.6
20260507100040 7 298 16.1 29.0 0.00 0.46 0.03 46 1020.6
20260507100036 8 298 16.1 29.0 0.00 0.46 0.03 44 1020.6
20260507095037 7 281 16.1 27.4 0.00 0.46 0.03 46 1020.6
20260507094534 7 281 14.5 25.7 0.00 0.46 0.03 46 1020.6
20260507094033 7 281 14.5 27.4 0.00 0.46 0.03 45 1020.6
20260507093535 7 296 14.5 27.4 0.00 0.46 0.03 47 1020.6
20260507093034 7 277 16.1 33.8 0.00 0.46 0.03 46 1020.6
20260507092533 7 304 16.1 33.8 0.00 0.46 0.03 47 1020.6
20260507092307 7 309 16.1 27.4 0.00 0.46 0.03 46 1020.6
20260507091536 7 264 16.1 30.6 0.00 0.46 0.03 44 1020.6
20260507091034 7 264 16.1 33.8 0.00 0.46 0.03 45 1020.6
20260507090535 7 299 16.1 33.8 0.00 0.46 0.03 45 1020.6
20260507090035 7 294 19.3 37.0 0.03 0.46 0.03 44 1020.6
20260507085534 7 300 20.9 37.0 0.03 0.46 0.03 43 1020.6
20260507085033 7 285 19.3 33.8 0.03 0.46 0.03 43 1020.6
20260507084803 7 298 19.3 38.6 0.03 0.46 0.03 43 1020.6
20260507084032 7 299 17.7 38.6 0.03 0.46 0.03 43 1020.6
20260507083531 7 274 17.7 30.6 0.03 0.46 0.03 43 1020.6
20260507083031 7 271 16.1 29.0 0.03 0.46 0.03 43 1020.6
20260507082533 6 283 17.7 33.8 0.03 0.46 0.03 45 1020.6
20260507082032 6 278 17.7 33.8 0.03 0.46 0.03 45 1020.6
20260507081532 6 311 17.7 29.0 0.03 0.46 0.03 44 1020.6
20260507081032 6 273 16.1 30.6 0.03 0.46 0.03 45 1020.6
20260507080531 6 278 16.1 30.6 0.03 0.46 0.03 45 1020.6
20260507080302 6 291 16.1 30.6 0.00 0.43 0.00 43 1020.6
20260507080154 6 271 14.5 29.0 0.00 0.43 0.00 43 1020.6
20260507075033 6 273 12.9 27.4 0.00 0.43 0.00 45 1020.6
20260507074531 6 255 12.9 24.1 0.00 0.43 0.00 45 1020.6
20260507074033 6 285 12.9 27.4 0.00 0.43 0.00 44 1020.6
20260507073531 6 296 12.9 27.4 0.00 0.43 0.00 44 1020.6
20260507073034 6 282 9.7 22.5 0.00 0.43 0.00 42 1020.6
20260507072531 6 269 9.7 22.5 0.00 0.43 0.00 43 1020.6
20260507072032 6 304 8.0 22.5 0.00 0.43 0.00 40 1020.6
20260507071532 6 286 8.0 24.1 0.00 0.43 0.00 41 1020.6
20260507071033 6 314 6.4 24.1 0.00 0.43 0.00 42 1020.6
20260507070532 6 274 3.2 17.7 0.00 0.43 0.00 44 1020.6
20260507070030 5 340 1.6 11.3 0.00 0.43 0.00 46 1020.6
20260507065530 5 302 1.6 11.3 0.00 0.43 0.00 45 1020.6
20260507065031 5 302 1.6 11.3 0.00 0.43 0.00 48 1020.6
20260507064529 5 300 1.6 6.4 0.00 0.43 0.00 47 1020.6
20260507064030 6 297 3.2 9.7 0.00 0.43 0.00 46 1020.6
20260507063530 6 252 3.2 9.7 0.00 0.43 0.00 45 1020.6
20260507063301 5 280 1.6 8.0 0.00 0.43 0.00 48 1020.6
20260507062803 5 283 1.6 6.4 0.00 0.43 0.00 50 1020.6
20260507062029 5 268 1.6 4.8 0.00 0.43 0.00 49 1020.6
20260507061530 5 337 1.6 6.4 0.00 0.43 0.00 50 1020.6
20260507061030 4 42 1.6 6.4 0.00 0.43 0.00 53 1020.6
20260507060527 4 51 1.6 8.0 0.00 0.43 0.00 55 1020.6
20260507060026 3 114 1.6 8.0 0.00 0.43 0.00 57 1020.6
20260507055527 3 89 0.0 6.4 0.00 0.43 0.43 58 1020.6
20260507055026 3 129 0.0 6.4 0.00 0.43 0.43 61 1020.6
20260507054527 3 121 0.0 4.8 0.00 0.43 0.43 67 1020.6
20260507054025 3 255 0.0 3.2 0.00 0.43 0.43 70 1020.6
20260507053527 3 77 0.0 4.8 0.00 0.43 0.43 73 1020.6
20260507053023 3 94 0.0 4.8 0.00 0.43 0.43 79 1020.6
20260507052524 3 117 0.0 1.6 0.00 0.43 0.43 88 1020.6
20260507052023 2 119 0.0 4.8 0.00 0.43 0.43 95 1020.6
20260507051524 2 285 0.0 4.8 0.00 0.43 0.43 96 1020.6
20260507051022 2 283 0.0 4.8 0.00 0.43 0.43 97 1020.6
20260507050754 2 283 0.0 4.8 0.00 0.43 0.43 97 1020.6
20260507050639 2 148 0.0 4.8 0.00 0.43 0.43 97 1020.6
20260507045521 1 257 0.0 4.8 0.00 0.43 0.43 97 1020.6
20260507045021 1 151 0.0 1.6 0.00 0.43 0.43 97 1020.6
20260507044520 1 134 0.0 0.0 0.00 0.43 0.43 97 1020.6
20260507044024 1 157 0.0 0.0 0.00 0.43 0.43 97 1020.6
20260507043522 1 231 0.0 0.0 0.00 0.43 0.43 97 1020.6
20260507043020 0 233 0.0 0.0 0.00 0.43 0.43 96 1020.6
20260507042518 0 264 0.0 0.0 0.00 0.43 0.43 97 1020.6
20260507042020 0 264 0.0 0.0 0.00 0.43 0.43 97 1020.6
20260507041750 0 292 0.0 3.2 0.00 0.43 0.43 96 1020.6
20260507041021 0 292 0.0 3.2 0.00 0.43 0.43 96 1020.6
20260507040518 0 290 0.0 1.6 0.00 0.43 0.43 96 1020.6
20260507040253 0 304 0.0 1.6 0.00 0.43 0.43 96 1020.6
20260507035518 0 321 0.0 0.0 0.00 0.43 0.43 96 1020.6
20260507035016 0 321 0.0 0.0 0.00 0.43 0.43 96 1020.6
20260507034518 0 293 0.0 1.6 0.00 0.43 0.43 96 1020.6
20260507034251 0 295 0.0 1.6 0.00 0.43 0.43 96 1020.6
20260507033516 0 217 0.0 0.0 0.00 0.43 0.43 96 1020.6
20260507033015 0 217 0.0 0.0 0.00 0.43 0.43 96 1020.6
20260507032514 0 217 0.0 0.0 0.00 0.43 0.43 96 1020.6
20260507032013 0 217 0.0 0.0 0.00 0.43 0.43 96 1020.6
20260507031744 0 266 0.0 0.0 0.00 0.43 0.43 96 1020.6
20260507031245 0 140 0.0 0.0 0.00 0.43 0.43 96 1020.6